| time (UTC) | temp C | wind direction | speed KPH | gust KPH | rain 1hr cm | rain 24hr cm | rain mn cm | humidity % | barometer mb |
| 20260506114504 | 12 | 17 | 9.7 | 24.1 | 0.00 | 0.00 | 0.00 | 79 | 1013.2 |
| 20260506113004 | 12 | 18 | 14.5 | 29.0 | 0.00 | 0.00 | 0.00 | 77 | 1012.5 |
| 20260506112504 | 12 | 358 | 8.0 | 25.7 | 0.00 | 0.00 | 0.00 | 76 | 1012.6 |
| 20260506112004 | 12 | 357 | 11.3 | 20.9 | 0.00 | 0.00 | 0.00 | 76 | 1012.4 |
| 20260506111004 | 12 | 345 | 11.3 | 20.9 | 0.00 | 0.00 | 0.00 | 75 | 1012.2 |
| 20260506110004 | 12 | 8 | 9.7 | 24.1 | 0.00 | 0.00 | 0.00 | 75 | 1012.1 |
| 20260506105504 | 12 | 1 | 11.3 | 27.4 | 0.00 | 0.00 | 0.00 | 74 | 1012.0 |
| 20260506105004 | 12 | 355 | 11.3 | 20.9 | 0.00 | 0.00 | 0.00 | 74 | 1011.8 |
| 20260506104504 | 13 | 7 | 9.7 | 27.4 | 0.00 | 0.00 | 0.00 | 74 | 1011.8 |
| 20260506104005 | 13 | 359 | 11.3 | 27.4 | 0.00 | 0.00 | 0.00 | 74 | 1011.8 |
| 20260506103504 | 13 | 11 | 12.9 | 20.9 | 0.00 | 0.00 | 0.00 | 74 | 1011.7 |
| 20260506103004 | 13 | 11 | 9.7 | 27.4 | 0.00 | 0.00 | 0.00 | 74 | 1011.4 |
| 20260506102504 | 13 | 355 | 4.8 | 16.1 | 0.00 | 0.00 | 0.00 | 73 | 1011.3 |
| 20260506102004 | 13 | 22 | 8.0 | 20.9 | 0.00 | 0.00 | 0.00 | 73 | 1011.3 |
| 20260506101504 | 13 | 9 | 14.5 | 24.1 | 0.00 | 0.00 | 0.00 | 72 | 1011.3 |
| 20260506101004 | 13 | 346 | 8.0 | 20.9 | 0.00 | 0.00 | 0.00 | 73 | 1011.1 |
| 20260506100504 | 13 | 355 | 9.7 | 19.3 | 0.00 | 0.00 | 0.00 | 73 | 1011.2 |
| 20260506094504 | 13 | 3 | 4.8 | 14.5 | 0.00 | 0.00 | 0.00 | 73 | 1011.0 |
| 20260506094004 | 13 | 6 | 6.4 | 19.3 | 0.00 | 0.00 | 0.00 | 73 | 1011.0 |
| 20260506093504 | 13 | 5 | 4.8 | 16.1 | 0.00 | 0.00 | 0.00 | 73 | 1010.9 |
| 20260506093004 | 13 | 347 | 8.0 | 19.3 | 0.00 | 0.00 | 0.00 | 73 | 1010.9 |
| 20260506092004 | 13 | 347 | 6.4 | 16.1 | 0.00 | 0.00 | 0.00 | 73 | 1010.9 |
| 20260506091504 | 14 | 347 | 3.2 | 14.5 | 0.00 | 0.00 | 0.00 | 73 | 1010.8 |
| 20260506091004 | 13 | 6 | 8.0 | 16.1 | 0.00 | 0.00 | 0.00 | 73 | 1010.8 |
| 20260506090503 | 13 | 4 | 9.7 | 19.3 | 0.00 | 0.00 | 0.00 | 73 | 1010.8 |
| 20260506090004 | 14 | 348 | 8.0 | 19.3 | 0.00 | 0.00 | 0.00 | 73 | 1010.8 |
| 20260506085503 | 14 | 23 | 9.7 | 16.1 | 0.00 | 0.00 | 0.00 | 73 | 1010.8 |
| 20260506085004 | 14 | 345 | 9.7 | 19.3 | 0.00 | 0.00 | 0.00 | 73 | 1010.7 |
| 20260506084004 | 14 | 335 | 6.4 | 19.3 | 0.00 | 0.00 | 0.00 | 73 | 1010.7 |
| 20260506083504 | 14 | 17 | 3.2 | 14.5 | 0.00 | 0.00 | 0.00 | 73 | 1010.6 |
| 20260506083004 | 14 | 7 | 3.2 | 12.9 | 0.00 | 0.00 | 0.00 | 73 | 1010.7 |
| 20260506082504 | 14 | 8 | 4.8 | 19.3 | 0.00 | 0.00 | 0.00 | 74 | 1010.7 |
| 20260506081503 | 14 | 344 | 3.2 | 14.5 | 0.00 | 0.00 | 0.00 | 74 | 1010.5 |
| 20260506081004 | 14 | 29 | 4.8 | 14.5 | 0.00 | 0.00 | 0.00 | 74 | 1010.2 |
| 20260506080504 | 14 | 83 | 4.8 | 14.5 | 0.00 | 0.00 | 0.00 | 74 | 1010.1 |
| 20260506073507 | 14 | 351 | 6.4 | 14.5 | 0.00 | 0.00 | 0.00 | 74 | 1010.2 |
| 20260506073007 | 14 | 18 | 6.4 | 16.1 | 0.00 | 0.00 | 0.00 | 74 | 1010.2 |
| 20260506072507 | 14 | 51 | 3.2 | 11.3 | 0.00 | 0.00 | 0.00 | 74 | 1010.3 |
| 20260506071507 | 14 | 29 | 6.4 | 14.5 | 0.00 | 0.00 | 0.00 | 74 | 1010.4 |
| 20260506062506 | 15 | 0 | 9.7 | 19.3 | 0.00 | 0.00 | 0.00 | 74 | 1010.3 |
| 20260506062007 | 15 | 0 | 8.0 | 22.5 | 0.00 | 0.00 | 0.00 | 75 | 1010.3 |
| 20260506061507 | 15 | 9 | 9.7 | 20.9 | 0.00 | 0.00 | 0.00 | 75 | 1010.3 |
| 20260506061006 | 15 | 6 | 9.7 | 20.9 | 0.00 | 0.00 | 0.00 | 75 | 1010.2 |
| 20260506060507 | 15 | 0 | 9.7 | 20.9 | 0.00 | 0.00 | 0.00 | 75 | 1010.3 |
| 20260506051007 | 16 | 347 | 9.7 | 22.5 | 0.00 | 0.00 | 0.00 | 76 | 1010.1 |
| 20260506050507 | 16 | 15 | 6.4 | 20.9 | 0.00 | 0.00 | 0.00 | 76 | 1010.0 |
| 20260506045006 | 16 | 357 | 4.8 | 20.9 | 0.00 | 0.00 | 0.00 | 75 | 1010.1 |
| 20260506044506 | 16 | 355 | 11.3 | 22.5 | 0.00 | 0.00 | 0.00 | 75 | 1009.9 |
| 20260506044007 | 16 | 348 | 11.3 | 20.9 | 0.00 | 0.00 | 0.00 | 75 | 1010.1 |
| 20260506043506 | 16 | 347 | 8.0 | 19.3 | 0.00 | 0.00 | 0.00 | 75 | 1010.0 |
| 20260506043006 | 16 | 12 | 14.5 | 24.1 | 0.00 | 0.00 | 0.00 | 75 | 1009.8 |
| 20260506042507 | 17 | 8 | 14.5 | 29.0 | 0.00 | 0.00 | 0.00 | 75 | 1009.9 |
| 20260506042006 | 17 | 356 | 11.3 | 22.5 | 0.00 | 0.00 | 0.00 | 76 | 1009.8 |
| 20260506041507 | 17 | 4 | 11.3 | 20.9 | 0.00 | 0.00 | 0.00 | 76 | 1009.7 |
| 20260506041006 | 17 | 355 | 11.3 | 20.9 | 0.00 | 0.00 | 0.00 | 76 | 1009.6 |
| 20260506040506 | 17 | 359 | 11.3 | 20.9 | 0.00 | 0.00 | 0.00 | 75 | 1009.5 |
| 20260506040006 | 17 | 4 | 9.7 | 20.9 | 0.00 | 0.00 | 0.00 | 75 | 1009.4 |
| 20260506035506 | 17 | 31 | 11.3 | 20.9 | 0.00 | 0.00 | 0.00 | 75 | 1009.4 |
| 20260506034506 | 18 | 24 | 4.8 | 14.5 | 0.00 | 0.00 | 0.00 | 76 | 1009.3 |
| 20260506034007 | 18 | 31 | 8.0 | 19.3 | 0.00 | 0.00 | 0.00 | 75 | 1009.3 |
| 20260506033506 | 18 | 4 | 9.7 | 22.5 | 0.00 | 0.00 | 0.00 | 75 | 1009.3 |
| 20260506033006 | 18 | 338 | 11.3 | 24.1 | 0.00 | 0.00 | 0.00 | 74 | 1009.2 |
| 20260506032506 | 18 | 357 | 11.3 | 27.4 | 0.00 | 0.00 | 0.00 | 74 | 1009.2 |
| 20260506032006 | 18 | 359 | 8.0 | 20.9 | 0.00 | 0.00 | 0.00 | 74 | 1009.0 |
| 20260506031506 | 19 | 12 | 11.3 | 24.1 | 0.00 | 0.00 | 0.00 | 74 | 1009.0 |
| 20260506030506 | 19 | 346 | 9.7 | 19.3 | 0.00 | 0.00 | 0.00 | 74 | 1008.6 |
| 20260506030006 | 20 | 340 | 9.7 | 24.1 | 0.00 | 0.00 | 0.00 | 73 | 1008.8 |
| 20260506025006 | 20 | 347 | 11.3 | 22.5 | 0.00 | 0.00 | 0.00 | 73 | 1008.5 |
| 20260506024506 | 20 | 346 | 9.7 | 20.9 | 0.00 | 0.00 | 0.00 | 72 | 1008.3 |
| 20260506024006 | 20 | 345 | 4.8 | 16.1 | 0.00 | 0.00 | 0.00 | 73 | 1008.1 |
| 20260506023506 | 20 | 350 | 11.3 | 20.9 | 0.00 | 0.00 | 0.00 | 72 | 1007.9 |
| 20260506022506 | 21 | 6 | 9.7 | 20.9 | 0.00 | 0.00 | 0.00 | 73 | 1007.5 |
| 20260506022006 | 21 | 6 | 6.4 | 29.0 | 0.00 | 0.00 | 0.00 | 72 | 1007.7 |
| 20260506021505 | 21 | 18 | 9.7 | 29.0 | 0.00 | 0.00 | 0.00 | 72 | 1007.5 |
| 20260506021006 | 21 | 353 | 4.8 | 20.9 | 0.00 | 0.00 | 0.00 | 72 | 1007.3 |
| 20260506020506 | 21 | 348 | 8.0 | 20.9 | 0.00 | 0.00 | 0.00 | 71 | 1007.0 |
| 20260506020006 | 21 | 353 | 4.8 | 16.1 | 0.00 | 0.00 | 0.00 | 71 | 1007.1 |
| 20260506015506 | 22 | 1 | 9.7 | 22.5 | 0.00 | 0.00 | 0.00 | 70 | 1007.2 |
| 20260506015006 | 22 | 353 | 4.8 | 16.1 | 0.00 | 0.00 | 0.00 | 69 | 1007.0 |
| 20260506014506 | 22 | 348 | 8.0 | 19.3 | 0.00 | 0.00 | 0.00 | 69 | 1007.0 |
| 20260506014005 | 22 | 350 | 3.2 | 11.3 | 0.00 | 0.00 | 0.00 | 68 | 1006.9 |
| 20260506013006 | 22 | 15 | 6.4 | 19.3 | 0.00 | 0.00 | 0.00 | 68 | 1007.0 |
| 20260506012006 | 22 | 22 | 4.8 | 9.7 | 0.00 | 0.00 | 0.00 | 67 | 1006.7 |
| 20260506011506 | 22 | 56 | 4.8 | 16.1 | 0.00 | 0.00 | 0.00 | 67 | 1006.6 |
| 20260506011005 | 23 | 351 | 9.7 | 20.9 | 0.00 | 0.00 | 0.00 | 67 | 1006.4 |
| 20260506010006 | 23 | 340 | 9.7 | 20.9 | 0.00 | 0.00 | 0.00 | 67 | 1006.2 |
| 20260506005506 | 23 | 336 | 9.7 | 19.3 | 0.00 | 0.00 | 0.00 | 67 | 1005.9 |
| 20260506005006 | 23 | 16 | 4.8 | 14.5 | 0.00 | 0.00 | 0.00 | 67 | 1006.2 |
| 20260506004505 | 23 | 345 | 9.7 | 19.3 | 0.00 | 0.00 | 0.00 | 67 | 1006.4 |
| 20260506004006 | 23 | 350 | 9.7 | 22.5 | 0.00 | 0.00 | 0.00 | 66 | 1006.3 |
| 20260506003506 | 23 | 15 | 9.7 | 20.9 | 0.00 | 0.00 | 0.00 | 66 | 1006.3 |
| 20260506003005 | 23 | 10 | 6.4 | 20.9 | 0.00 | 0.00 | 0.00 | 66 | 1006.2 |
| 20260506002506 | 23 | 4 | 8.0 | 16.1 | 0.00 | 0.00 | 0.00 | 66 | 1006.1 |
| 20260506002006 | 23 | 10 | 11.3 | 22.5 | 0.00 | 0.00 | 0.00 | 65 | 1006.0 |
| 20260506001505 | 24 | 357 | 11.3 | 22.5 | 0.00 | 0.00 | 0.00 | 65 | 1006.1 |
| 20260506001005 | 25 | 6 | 14.5 | 20.9 | 0.00 | 0.00 | 0.00 | 64 | 1005.9 |
| 20260506000505 | 25 | 350 | 11.3 | 25.7 | 0.00 | 0.00 | 0.00 | 63 | 1005.5 |
| 20260506000006 | 25 | 342 | 11.3 | 24.1 | 0.00 | 0.00 | 0.00 | 62 | 1005.2 |
| 20260505235506 | 26 | 353 | 8.0 | 20.9 | 0.00 | 0.00 | 0.00 | 62 | 1005.2 |
| 20260505234506 | 26 | 302 | 4.8 | 20.9 | 0.00 | 0.00 | 0.00 | 61 | 1005.4 |
| 20260505234005 | 26 | 335 | 19.3 | 27.4 | 0.00 | 0.00 | 0.00 | 60 | 1005.4 |
| 20260505233505 | 27 | 332 | 9.7 | 27.4 | 0.00 | 0.00 | 0.00 | 59 | 1005.4 |
| 20260505233006 | 27 | 348 | 14.5 | 25.7 | 0.00 | 0.00 | 0.00 | 59 | 1005.3 |
| 20260505232505 | 27 | 336 | 11.3 | 25.7 | 0.00 | 0.00 | 0.00 | 58 | 1005.1 |
| 20260505232006 | 28 | 338 | 16.1 | 27.4 | 0.00 | 0.00 | 0.00 | 56 | 1004.9 |
| 20260505231506 | 28 | 333 | 8.0 | 22.5 | 0.00 | 0.00 | 0.00 | 53 | 1004.8 |
| 20260505231006 | 29 | 340 | 9.7 | 20.9 | 0.00 | 0.00 | 0.00 | 51 | 1004.8 |
| 20260505230506 | 29 | 354 | 9.7 | 24.1 | 0.00 | 0.00 | 0.00 | 50 | 1004.6 |
| 20260505230006 | 30 | 346 | 11.3 | 29.0 | 0.00 | 0.00 | 0.00 | 49 | 1004.4 |
| 20260505225506 | 30 | 357 | 11.3 | 27.4 | 0.00 | 0.00 | 0.00 | 47 | 1004.4 |
| 20260505225005 | 30 | 347 | 8.0 | 24.1 | 0.00 | 0.00 | 0.00 | 47 | 1004.4 |
| 20260505224505 | 30 | 344 | 8.0 | 22.5 | 0.00 | 0.00 | 0.00 | 46 | 1004.5 |
| 20260505224006 | 31 | 334 | 9.7 | 20.9 | 0.00 | 0.00 | 0.00 | 46 | 1004.3 |
| 20260505223505 | 31 | 269 | 9.7 | 14.5 | 0.00 | 0.00 | 0.00 | 50 | 1004.0 |
| 20260505223005 | 31 | 257 | 3.2 | 8.0 | 0.00 | 0.00 | 0.00 | 50 | 1004.0 |
| 20260505222505 | 31 | 268 | 6.4 | 12.9 | 0.00 | 0.00 | 0.00 | 51 | 1004.0 |
| 20260505222006 | 31 | 260 | 6.4 | 19.3 | 0.00 | 0.00 | 0.00 | 50 | 1003.9 |
| 20260505221505 | 32 | 204 | 6.4 | 12.9 | 0.00 | 0.00 | 0.00 | 50 | 1003.9 |
| 20260505221005 | 32 | 262 | 4.8 | 14.5 | 0.00 | 0.00 | 0.00 | 51 | 1003.9 |
| 20260505220506 | 32 | 180 | 4.8 | 16.1 | 0.00 | 0.00 | 0.00 | 50 | 1004.1 |
| 20260505220005 | 31 | 254 | 11.3 | 20.9 | 0.00 | 0.00 | 0.00 | 52 | 1004.1 |
| 20260505215505 | 32 | 260 | 11.3 | 19.3 | 0.00 | 0.00 | 0.00 | 51 | 1004.1 |
| 20260505215005 | 32 | 199 | 6.4 | 14.5 | 0.00 | 0.00 | 0.00 | 51 | 1004.1 |
| 20260505214505 | 31 | 181 | 4.8 | 14.5 | 0.00 | 0.00 | 0.00 | 52 | 1004.1 |
| 20260505214006 | 31 | 263 | 4.8 | 11.3 | 0.00 | 0.00 | 0.00 | 54 | 1004.1 |
| 20260505213505 | 32 | 182 | 4.8 | 16.1 | 0.00 | 0.00 | 0.00 | 52 | 1004.2 |
| 20260505213005 | 32 | 228 | 9.7 | 20.9 | 0.00 | 0.00 | 0.00 | 53 | 1004.4 |
| 20260505212506 | 32 | 201 | 6.4 | 16.1 | 0.00 | 0.00 | 0.00 | 52 | 1004.3 |
| 20260505212006 | 31 | 221 | 6.4 | 14.5 | 0.00 | 0.00 | 0.00 | 53 | 1004.4 |
| 20260505211005 | 32 | 254 | 8.0 | 19.3 | 0.00 | 0.00 | 0.00 | 52 | 1004.6 |
| 20260505210006 | 31 | 253 | 8.0 | 20.9 | 0.00 | 0.00 | 0.00 | 54 | 1004.6 |
| 20260505205505 | 31 | 246 | 11.3 | 16.1 | 0.00 | 0.00 | 0.00 | 52 | 1004.6 |
| 20260505205005 | 31 | 213 | 8.0 | 20.9 | 0.00 | 0.00 | 0.00 | 53 | 1004.7 |
| 20260505204506 | 31 | 236 | 8.0 | 14.5 | 0.00 | 0.00 | 0.00 | 53 | 1004.7 |
| 20260505204006 | 31 | 218 | 6.4 | 19.3 | 0.00 | 0.00 | 0.00 | 53 | 1004.9 |
| 20260505203505 | 32 | 278 | 9.7 | 27.4 | 0.00 | 0.00 | 0.00 | 52 | 1005.1 |
| 20260505203005 | 31 | 246 | 12.9 | 29.0 | 0.00 | 0.00 | 0.00 | 54 | 1005.0 |
| 20260505202505 | 31 | 179 | 6.4 | 20.9 | 0.00 | 0.00 | 0.00 | 55 | 1005.0 |
| 20260505202005 | 31 | 260 | 9.7 | 24.1 | 0.00 | 0.00 | 0.00 | 57 | 1005.0 |
| 20260505201506 | 31 | 219 | 12.9 | 27.4 | 0.00 | 0.00 | 0.00 | 57 | 1005.1 |
| 20260505201005 | 31 | 184 | 4.8 | 20.9 | 0.00 | 0.00 | 0.00 | 56 | 1005.0 |
| 20260505200505 | 31 | 226 | 8.0 | 16.1 | 0.00 | 0.00 | 0.00 | 56 | 1005.0 |
| 20260505200005 | 31 | 178 | 8.0 | 19.3 | 0.00 | 0.00 | 0.00 | 58 | 1005.0 |
| 20260505195505 | 31 | 198 | 11.3 | 20.9 | 0.00 | 0.00 | 0.00 | 56 | 1005.1 |
| 20260505195005 | 31 | 233 | 8.0 | 22.5 | 0.00 | 0.00 | 0.00 | 58 | 1005.2 |
| 20260505194505 | 31 | 268 | 11.3 | 32.2 | 0.00 | 0.00 | 0.00 | 57 | 1005.2 |
| 20260505193505 | 30 | 195 | 16.1 | 29.0 | 0.00 | 0.00 | 0.00 | 60 | 1005.1 |
| 20260505193005 | 30 | 193 | 11.3 | 20.9 | 0.00 | 0.00 | 0.00 | 60 | 1005.1 |
| 20260505192505 | 30 | 197 | 9.7 | 20.9 | 0.00 | 0.00 | 0.00 | 60 | 1005.3 |
| 20260505192005 | 30 | 190 | 9.7 | 25.7 | 0.00 | 0.00 | 0.00 | 60 | 1005.3 |
| 20260505191505 | 30 | 209 | 9.7 | 24.1 | 0.00 | 0.00 | 0.00 | 62 | 1005.2 |
| 20260505191005 | 30 | 196 | 12.9 | 24.1 | 0.00 | 0.00 | 0.00 | 62 | 1005.1 |
| 20260505185504 | 29 | 231 | 8.0 | 20.9 | 0.00 | 0.00 | 0.00 | 63 | 1005.3 |
| 20260505185005 | 29 | 196 | 11.3 | 24.1 | 0.00 | 0.00 | 0.00 | 63 | 1005.3 |
| 20260505184505 | 28 | 212 | 14.5 | 22.5 | 0.00 | 0.00 | 0.00 | 63 | 1005.3 |
| 20260505184005 | 28 | 199 | 8.0 | 16.1 | 0.00 | 0.00 | 0.00 | 64 | 1005.4 |
| 20260505183505 | 28 | 19 | 4.8 | 24.1 | 0.00 | 0.00 | 0.00 | 64 | 1005.4 |
| 20260505183005 | 28 | 218 | 11.3 | 27.4 | 0.00 | 0.00 | 0.00 | 63 | 1005.4 |
| 20260505182505 | 29 | 202 | 6.4 | 19.3 | 0.00 | 0.00 | 0.00 | 64 | 1005.3 |
| 20260505182004 | 28 | 189 | 11.3 | 20.9 | 0.00 | 0.00 | 0.00 | 64 | 1005.4 |
| 20260505181505 | 28 | 220 | 6.4 | 19.3 | 0.00 | 0.00 | 0.00 | 63 | 1005.5 |
| 20260505181005 | 28 | 231 | 9.7 | 22.5 | 0.00 | 0.00 | 0.00 | 64 | 1005.5 |
| 20260505180505 | 28 | 255 | 11.3 | 22.5 | 0.00 | 0.00 | 0.00 | 64 | 1005.4 |
| 20260505175505 | 28 | 193 | 11.3 | 27.4 | 0.00 | 0.00 | 0.00 | 66 | 1005.3 |
| 20260505175005 | 28 | 209 | 11.3 | 27.4 | 0.00 | 0.00 | 0.00 | 66 | 1005.4 |
| 20260505174505 | 28 | 194 | 14.5 | 29.0 | 0.00 | 0.00 | 0.00 | 66 | 1005.5 |
| 20260505174005 | 28 | 210 | 9.7 | 25.7 | 0.00 | 0.00 | 0.00 | 67 | 1005.5 |
| 20260505173505 | 27 | 183 | 9.7 | 20.9 | 0.00 | 0.00 | 0.00 | 67 | 1005.5 |
| 20260505172505 | 27 | 231 | 9.7 | 20.9 | 0.00 | 0.00 | 0.00 | 68 | 1005.6 |
| 20260505172005 | 27 | 225 | 8.0 | 22.5 | 0.00 | 0.00 | 0.00 | 68 | 1005.6 |
| 20260505171505 | 27 | 194 | 9.7 | 20.9 | 0.00 | 0.00 | 0.00 | 69 | 1005.6 |
| 20260505171004 | 26 | 206 | 14.5 | 32.2 | 0.00 | 0.00 | 0.00 | 69 | 1005.6 |
| 20260505170505 | 27 | 205 | 14.5 | 24.1 | 0.00 | 0.00 | 0.00 | 69 | 1005.6 |
| 20260505170005 | 27 | 195 | 12.9 | 25.7 | 0.00 | 0.00 | 0.00 | 69 | 1005.7 |
| 20260505165005 | 26 | 189 | 11.3 | 33.8 | 0.00 | 0.00 | 0.00 | 70 | 1005.6 |
| 20260505164505 | 26 | 223 | 11.3 | 25.7 | 0.00 | 0.00 | 0.00 | 70 | 1005.6 |
| 20260505164005 | 26 | 215 | 9.7 | 19.3 | 0.00 | 0.00 | 0.00 | 71 | 1005.5 |
| 20260505163504 | 26 | 223 | 8.0 | 29.0 | 0.00 | 0.00 | 0.00 | 71 | 1005.5 |
| 20260505163005 | 26 | 210 | 16.1 | 29.0 | 0.00 | 0.00 | 0.00 | 71 | 1005.4 |
| 20260505162505 | 26 | 213 | 11.3 | 25.7 | 0.00 | 0.00 | 0.00 | 71 | 1005.4 |
| 20260505162004 | 26 | 199 | 14.5 | 25.7 | 0.00 | 0.00 | 0.00 | 72 | 1005.4 |
| 20260505161505 | 26 | 211 | 9.7 | 20.9 | 0.00 | 0.00 | 0.00 | 71 | 1005.4 |
| 20260505161005 | 26 | 224 | 11.3 | 20.9 | 0.00 | 0.00 | 0.00 | 72 | 1005.4 |
| 20260505160505 | 25 | 213 | 11.3 | 20.9 | 0.00 | 0.00 | 0.00 | 73 | 1005.3 |
| 20260505153005 | 25 | 214 | 14.5 | 27.4 | 0.00 | 0.00 | 0.00 | 74 | 1005.1 |
| 20260505152504 | 25 | 194 | 16.1 | 35.4 | 0.00 | 0.00 | 0.00 | 74 | 1005.2 |
| 20260505152005 | 25 | 201 | 8.0 | 40.2 | 0.00 | 0.00 | 0.00 | 74 | 1005.4 |
| 20260505151504 | 25 | 204 | 8.0 | 20.9 | 0.00 | 0.00 | 0.00 | 76 | 1005.4 |
| 20260505151005 | 24 | 183 | 16.1 | 37.0 | 0.00 | 0.00 | 0.00 | 76 | 1005.5 |
| 20260505150504 | 23 | 212 | 16.1 | 32.2 | 0.00 | 0.00 | 0.00 | 77 | 1005.4 |
| 20260505140505 | 23 | 185 | 12.9 | 35.4 | 0.00 | 0.00 | 0.00 | 79 | 1005.3 |
| 20260505125005 | 22 | 197 | 9.7 | 20.9 | 0.00 | 0.00 | 0.00 | 82 | 1004.8 |
| 20260505123504 | 21 | 164 | 9.7 | 22.5 | 0.00 | 0.00 | 0.00 | 83 | 1004.5 |
| 20260505123004 | 21 | 193 | 9.7 | 22.5 | 0.00 | 0.00 | 0.00 | 83 | 1004.4 |
| 20260505122504 | 21 | 196 | 11.3 | 27.4 | 0.00 | 0.00 | 0.00 | 83 | 1004.5 |
| 20260505122004 | 21 | 202 | 11.3 | 25.7 | 0.00 | 0.00 | 0.00 | 83 | 1004.4 |
| 20260505121504 | 21 | 193 | 11.3 | 25.7 | 0.00 | 0.00 | 0.00 | 83 | 1004.4 |
| 20260505121004 | 21 | 197 | 14.5 | 25.7 | 0.00 | 0.00 | 0.00 | 83 | 1004.4 |
| 20260505120504 | 21 | 203 | 9.7 | 24.1 | 0.00 | 0.00 | 0.00 | 82 | 1004.4 |
| 20260505120005 | 21 | 205 | 11.3 | 25.7 | 0.00 | 0.00 | 0.00 | 82 | 1004.2 |
| 20260505115504 | 21 | 177 | 11.3 | 29.0 | 0.00 | 0.00 | 0.00 | 82 | 1004.2 |
| 20260505115004 | 21 | 215 | 12.9 | 32.2 | 0.00 | 0.00 | 0.00 | 82 | 1004.1 |